Regional Weather Roundup
Issued by NWS State College, PA

Home | Current Version | Previous Version | Text Only | Print | Product List | Glossary On
Versions: 1 2 3 4 5 6 7 8 9 10 11 12 13 14 15 16 17 18 19 20 21 22 23 24 25 26 27 28 29 30 31 32 33 34 35 36 37 38 39 40 41 42 43 44 45 46 47 48 49 50
000
ASUS41 KCTP 230803
RWRCTP

REGIONAL WEATHER ROUNDUP
NATIONAL WEATHER SERVICE STATE COLLEGE PA
400 AM EDT THU OCT 23 2014

Note: "fair" indicates few or no clouds below 12,000 feet with no
significant weather and/or obstructions to visibility.

* = STATION THAT DOES NOT REPORT PRECIPITATION /E.G. RAIN...SNOW...ETC/
    THUNDER OR FOG.

PAZ002>004-007>009-013>016-020>023-029>032-230900-
WESTERN PENNSYLVANIA

CITY           SKY/WX    TMP DP  RH WIND       PRES   REMARKS
ERIE           CLOUDY    51  42  71 N7        30.16S
MEADVILLE      CLOUDY    45  42  89 N7        30.14S
FRANKLIN*      CLOUDY    45  39  81 N6        30.12F
NEW CASTLE       N/A     42  41  97 CALM      30.16S
BEAVER COUNTY  NOT AVBL
BUTLER*        MOCLDY    39  37  93 W5        30.13F
PITTSBURGH INT PTCLDY    43  40  89 NW8       30.13S
PITTSBURGH     CLOUDY    44  38  79 NW10      30.10F
INDIANA*       CLOUDY    45  41  87 NW5       30.10F
LATROBE        NOT AVBL
WASHINGTON CO* CLOUDY    43  39  87 CALM      30.15S
$$

PAZ004>006-010>012-017>019-024>028-033>037-041-042-045-046-049>053-230900-
CENTRAL PENNSYLVANIA

CITY           SKY/WX    TMP DP  RH WIND       PRES   REMARKS
BRADFORD       CLOUDY    42  37  82 N9G18     30.06F
DUBOIS         CLOUDY    44  39  82 N10       30.05S
CLEARFIELD     CLOUDY    46  40  79 N9        30.03S
JOHNSTOWN      CLOUDY    42  38  85 NW16      30.02F
ALTOONA        CLOUDY    47  41  80 N12       30.00F
STATE COLLEGE  CLOUDY    47  41  79 N15       29.98F
WILLIAMSPORT   CLOUDY    51  40  65 NW14G25   29.92F
SELINSGROVE    CLOUDY    51  43  74 N9        29.91F
FT INDIANTOWN  CLOUDY    52  46  81 N21G35    29.85F
CAPITAL CITY   CLOUDY    54  43  66 N15       29.88F
HARRISBURG     CLOUDY    53  42  66 N15G23    29.87S
YORK           CLOUDY    52  43  71 NW12G18   29.87F
$$

PAZ038>040-043-044-047-048-054-055-060>062-067>071-230900-
EASTERN PENNSYLVANIA

CITY           SKY/WX    TMP DP  RH WIND       PRES   REMARKS
SCRANTON       CLOUDY    48  43  82 N12G17    29.88R
MOUNT POCONO   LGT RAIN  45  41  86 NW21G32   29.79F
ALLENTOWN      LGT RAIN  52  43  71 N15       29.79F
QUAKERTOWN*    CLOUDY    50  45  81 N12       29.79R
READING        CLOUDY    52  43  71 N16G23    29.82F
LANCASTER      CLOUDY    51  42  71 N14G23    29.84F
COATESVILLE    CLOUDY    50  45  81 NW15G23   29.80F
POTTSTOWN      PTCLDY    51  43  74 N14G23    29.79F
BLUE BELL      CLOUDY    52  46  82 NW5       29.75F
DOYLESTOWN     CLOUDY    50  46  86 N12G20    29.75R
WILLOW GROVE   NOT AVBL
NORTH PHILA    CLOUDY    53  46  77 N14G23    29.75S
PHILADELPHIA   CLOUDY    53  45  74 NW16G29   29.75F
$$



USA.gov is the U.S. government's official web portal to all federal, state and local government web resources and services.